Location: Home
(42.5358°N, 72.7383°W)
Time: 11:29:56
(UTC-05:00)

A-11 Canister half - Pass Details

Date: 08 December 2021
Orbit: 1516 x 1684 km, 47.2° (Epoch: 24 January)

Event Time Altitude Azimuth Distance (km) Brightness Sun altitude
Exits shadow 04:34:06 - 212° (SSW) 4,563 11.3 -27.5°
Reaches altitude 10° 04:36:51 10° 206° (SSW) 3,731 10.8 -27.0°
Maximum altitude 04:45:41 46° 137° (SE) 2,045 9.9 -25.4°
Drops below altitude 10° 04:54:50 10° 69° (ENE) 3,869 11.9 -23.8°
Sets 04:58:10 0° 64° (ENE) 4,880 12.5 -23.2°
